Date String (YYYY-MM-DD hh:mm:ss) UTC,Instrument flags,Ambient pressure (hPa),Sample flow (lpm),Bypass flow (lpm),Sample temperature (°C),Ambient temperature (°C),ASC tube jacket temperature (°C),LED temperature (°C),Box temperature (°C),Sample RH (%),Span deviation,Mass concentration (μg/m³),Mass concentration (μg/m³),Mass concentration (μg/m³)
DateTimeUTC,F1_M11,P_M11,Q1_M11,Q2_M11,T1_M11,T2_M11,T3_M11,T4_M11,T5_M11,U1_M11,ZSPAN_M11,X0_M11,X2_M11,X1_M11
2022-01-28 23:00:00,,0832.8,5.02,0.00,26.6,26.1,00.0,35.4,28.6,06.6,0000.0,0004.45,0001.80,0001.33
2022-01-28 23:01:00,,0832.7,5.00,0.00,26.7,26.1,00.0,35.4,28.6,06.9,0000.0,0004.62,0001.82,0001.33
2022-01-28 23:02:00,,0832.7,5.00,0.00,26.7,26.1,00.0,35.4,28.6,07.1,0000.0,0004.91,0001.85,0001.34
2022-01-28 23:03:00,,0832.7,4.99,0.00,26.7,26.1,00.0,35.4,28.6,06.8,0000.0,0005.31,0001.91,0001.34
2022-01-28 23:04:00,,0832.7,5.00,0.00,26.7,26.1,00.0,35.5,28.7,06.4,0000.0,0005.34,0001.90,0001.36
2022-01-28 23:05:00,,0832.7,5.01,0.00,26.7,26.1,00.0,35.5,28.7,06.3,0000.0,0005.37,0001.91,0001.36
2022-01-28 23:06:00,,0832.7,5.00,0.00,26.8,26.2,00.0,35.5,28.7,06.3,0000.0,0005.44,0001.92,0001.36
2022-01-28 23:07:00,,0832.7,5.00,0.00,26.8,26.2,00.0,35.5,28.7,06.1,0000.0,0005.99,0001.95,0001.39
2022-01-28 23:08:00,,0832.6,4.99,0.00,26.8,26.2,00.0,35.5,28.7,06.1,0000.0,0005.22,0001.90,0001.40
2022-01-28 23:09:00,,0832.7,5.00,0.00,26.8,26.2,00.0,35.5,28.7,06.0,0000.0,0005.16,0001.86,0001.42
2022-01-28 23:10:00,,0832.6,4.99,0.00,26.8,26.2,00.0,35.6,28.7,06.0,0000.0,0005.00,0001.85,0001.43
2022-01-28 23:11:00,,0832.6,5.00,0.00,26.8,26.2,00.0,35.6,28.8,06.2,0000.0,0004.98,0001.86,0001.43
2022-01-28 23:12:00,,0832.6,5.02,0.00,26.8,26.2,00.0,35.6,28.8,06.2,0000.0,0004.79,0001.84,0001.44
2022-01-28 23:13:00,,0832.5,5.00,0.00,26.9,26.2,00.0,35.6,28.8,06.2,0000.0,0004.47,0001.82,0001.44
2022-01-28 23:14:00,,0832.5,5.00,0.00,26.9,26.2,00.0,35.6,28.8,06.0,0000.0,0004.27,0001.82,0001.45
2022-01-28 23:15:00,,0832.5,5.00,0.00,26.9,26.2,00.0,35.6,28.8,05.9,0000.0,0004.35,0001.87,0001.47
2022-01-28 23:16:00,,0832.5,4.99,0.00,26.9,26.2,00.0,35.7,28.8,05.9,0000.0,0004.41,0001.91,0001.48
2022-01-28 23:17:00,,0832.5,5.00,0.00,26.9,26.3,00.0,35.7,28.8,05.8,0000.0,0004.59,0001.96,0001.49
2022-01-28 23:18:00,,0832.6,5.02,0.00,26.9,26.3,00.0,35.7,28.8,05.8,0000.0,0004.53,0002.00,0001.49
2022-01-28 23:19:00,,0832.6,5.00,0.00,26.9,26.3,00.0,35.7,28.8,05.8,0000.0,0003.94,0002.03,0001.49
2022-01-28 23:20:00,,0832.6,4.99,0.00,26.9,26.3,00.0,35.7,28.9,05.9,0000.0,0003.71,0002.07,0001.50
2022-01-28 23:21:00,,0832.6,5.00,0.00,27.0,26.3,00.0,35.7,28.9,06.3,0000.0,0003.75,0002.11,0001.50
2022-01-28 23:22:00,,0832.6,5.01,0.00,27.0,26.3,00.0,35.7,28.8,06.4,0000.0,0003.67,0002.08,0001.51
2022-01-28 23:23:00,,0832.6,5.01,0.00,27.0,26.3,00.0,35.7,28.8,06.3,0000.0,0003.75,0002.10,0001.51
2022-01-28 23:24:00,,0832.5,5.00,0.00,27.0,26.3,00.0,35.8,28.8,06.2,0000.0,0003.70,0002.09,0001.50
2022-01-28 23:25:00,,0832.5,4.99,0.00,27.0,26.3,00.0,35.8,28.8,06.1,0000.0,0003.60,0002.08,0001.49
2022-01-28 23:26:00,,0832.5,5.01,0.00,27.0,26.3,00.0,35.8,28.8,06.0,0000.0,0003.57,0002.05,0001.47
2022-01-28 23:27:00,,0832.5,5.00,0.00,27.0,26.3,00.0,35.8,28.8,06.1,0000.0,0003.53,0002.03,0001.48
2022-01-28 23:28:00,,0832.5,4.99,0.00,27.0,26.3,00.0,35.8,28.8,06.1,0000.0,0003.54,0002.04,0001.50
2022-01-28 23:29:00,,0832.5,5.00,0.00,27.0,26.3,00.0,35.8,28.8,06.0,0000.0,0003.86,0002.01,0001.50
2022-01-28 23:30:00,,0832.5,5.00,0.00,27.0,26.3,00.0,35.8,28.9,06.0,0000.0,0004.26,0002.05,0001.52
2022-01-28 23:31:00,,0832.5,5.01,0.00,27.0,26.3,00.0,35.8,28.8,06.0,0000.0,0004.36,0002.07,0001.52
2022-01-28 23:32:00,,0832.5,4.99,0.00,27.0,26.3,00.0,35.8,28.8,06.0,0000.0,0004.43,0002.08,0001.54
2022-01-28 23:33:00,,0832.5,5.00,0.00,27.0,26.3,00.0,35.8,28.8,06.0,0000.0,0004.49,0002.11,0001.57
2022-01-28 23:34:00,,0832.5,5.01,0.00,27.0,26.3,00.0,35.8,28.9,06.0,0000.0,0004.51,0002.16,0001.61
2022-01-28 23:35:00,,0832.5,4.99,0.00,27.0,26.3,00.0,35.9,28.9,06.0,0000.0,0005.29,0002.23,0001.66
2022-01-28 23:36:00,,0832.5,4.99,0.00,27.0,26.3,00.0,35.9,28.9,05.9,0000.0,0005.93,0002.26,0001.70
2022-01-28 23:37:00,,0832.5,5.01,0.00,27.0,26.3,00.0,35.9,28.9,05.9,0000.0,0006.73,0002.31,0001.74
2022-01-28 23:38:00,,0832.5,4.99,0.00,27.0,26.3,00.0,35.9,28.9,05.9,0000.0,0007.50,0002.34,0001.77
2022-01-28 23:39:00,,0832.5,5.00,0.00,27.0,26.3,00.0,35.9,28.9,05.9,0000.0,0007.45,0002.33,0001.79
2022-01-28 23:40:00,,0832.5,5.02,0.00,27.0,26.3,00.0,35.9,28.9,05.9,0000.0,0006.81,0002.29,0001.80
2022-01-28 23:41:00,,0832.5,5.00,0.00,27.0,26.3,00.0,35.9,28.9,05.9,0000.0,0006.38,0002.26,0001.81
2022-01-28 23:42:00,,0832.4,4.99,0.00,27.0,26.3,00.0,35.9,28.9,05.9,0000.0,0006.32,0002.25,0001.82
2022-01-28 23:43:00,,0832.4,4.99,0.00,27.1,26.3,00.0,35.9,28.9,05.9,0000.0,0006.43,0002.27,0001.83
2022-01-28 23:44:00,,0832.4,5.01,0.00,27.1,26.3,00.0,35.9,28.9,05.9,0000.0,0006.56,0002.31,0001.83
2022-01-28 23:45:00,,0832.4,5.01,0.00,27.1,26.3,00.0,35.9,28.9,05.9,0000.0,0006.70,0002.30,0001.81
2022-01-28 23:46:00,,0832.3,5.00,0.00,27.1,26.3,00.0,35.9,28.9,05.9,0000.0,0006.19,0002.26,0001.79
2022-01-28 23:47:00,,0832.4,4.99,0.00,27.1,26.3,00.0,35.9,28.9,05.9,0000.0,0005.55,0002.23,0001.77
2022-01-28 23:48:00,,0832.3,5.00,0.00,27.1,26.3,00.0,35.9,28.9,05.9,0000.0,0004.91,0002.23,0001.75
2022-01-28 23:49:00,,0832.4,5.01,0.00,27.1,26.4,00.0,35.9,28.9,05.9,0000.0,0003.94,0002.23,0001.76
2022-01-28 23:50:00,,0832.4,5.00,0.00,27.1,26.4,00.0,35.9,28.9,05.9,0000.0,0004.65,0002.26,0001.75
2022-01-28 23:51:00,,0832.4,5.00,0.00,27.1,26.4,00.0,35.9,28.9,06.0,0000.0,0005.40,0002.33,0001.77
2022-01-28 23:52:00,,0832.3,4.99,0.00,27.1,26.4,00.0,35.9,28.9,06.0,0000.0,0005.61,0002.39,0001.78
2022-01-28 23:53:00,,0832.3,4.99,0.00,27.1,26.3,00.0,35.9,28.9,06.1,0000.0,0005.74,0002.41,0001.80
2022-01-28 23:54:00,,0832.3,5.01,0.00,27.1,26.3,00.0,35.9,28.8,06.1,0000.0,0005.73,0002.43,0001.84
2022-01-28 23:55:00,,0832.3,4.99,0.00,27.1,26.3,00.0,35.9,28.8,06.1,0000.0,0005.83,0002.47,0001.86
2022-01-28 23:56:00,,0832.3,5.00,0.00,27.1,26.3,00.0,35.9,28.8,06.1,0000.0,0005.89,0002.50,0001.89
2022-01-28 23:57:00,,0832.2,5.02,0.00,27.0,26.3,00.0,35.9,28.8,06.1,0000.0,0005.84,0002.55,0001.93
2022-01-28 23:58:00,,0832.2,5.00,0.00,27.0,26.3,00.0,35.9,28.8,06.1,0000.0,0005.95,0002.61,0001.97
2022-01-28 23:59:00,,0832.2,5.00,0.00,27.0,26.3,00.0,35.9,28.8,06.1,0000.0,0005.95,0002.62,0002.01
